Regional Weather Roundup
Issued by NWS

Home | Current Version | Previous Version | Text Only | Print | Product List | Glossary Off
Versions: 1 2 3 4 5 6 7 8 9 10 11 12 13 14 15 16 17 18 19 20 21 22 23 24 25 26 27 28 29 30 31 32 33 34 35 36 37 38 39 40 41 42 43 44 45 46 47 48 49 50

000
ASUS43 KMKX 110811
RWRWI

WISCONSIN REGIONAL WEATHER ROUNDUP
NATIONAL WEATHER SERVICE MILWAUKEE/SULLIVAN WI
300 AM CDT FRI JUL 11 2014

NOTE: "FAIR" INDICATES FEW OR NO CLOUDS BELOW 12,000 FEET WITH NO
SIGNIFICANT WEATHER AND/OR OBSTRUCTIONS TO VISIBILITY.

WIZ001-002-006>008-014>016-023>028-110900-
NORTHWEST WISCONSIN

CITY           SKY/WX    TMP DP  RH WIND       PRES   REMARKS
SUPERIOR ARPT  LGT RAIN  53  52  97 CALM      29.99F
ASHLAND        MOCLDY    69  62  78 S6        30.01S
HAYWARD        LGT RAIN  70  61  73 S9        30.03F
SIREN          CLOUDY    72  58  62 S9        29.98F
RICE LAKE      CLOUDY    68  59  73 SE6       30.05S
LADYSMITH      CLOUDY    67  62  83 S6        30.08S
EAU CLAIRE     PTCLDY    67  61  81 S9        30.04F
MENOMONIE      PTSUNNY   69  58  68 S8        30.04F
NEW RICHMOND   LGT RAIN  70  58  65 S13G20    30.01F
OSCEOLA        CLOUDY    72  59  62 S14G23    30.01F
$$

WIZ003>005-009-010-017-018-110900-
NORTH CENTRAL WISCONSIN

CITY           SKY/WX    TMP DP  RH WIND       PRES   REMARKS
WOODRUFF       MOCLDY    64  61  88 S7        30.10S
RHINELANDER    PTCLDY    62  59  90 S3        30.11F
EAGLE RIVER    PTCLDY    60  59  95 CALM      30.10S
LAND O LAKES   PTCLDY    62  58  88 CALM      30.11S
PHILLIPS       CLOUDY    65  61  88 S6        30.07F
TOMAHAWK       MOCLDY    62  59  91 CALM      30.10F
MEDFORD        MOCLDY    63  60  91 S7        30.09F
MERRILL        CLOUDY    63  61  94 SE5       30.11S
$$

WIZ029-030-035-036-043>047-110900-
CENTRAL WISCONSIN

CITY           SKY/WX    TMP DP  RH WIND       PRES   REMARKS
WAUSAU         PTCLDY    66  61  84 S9        30.10S
MOSINEE        PTCLDY    63  63 100 S7        30.13S
MARSHFIELD     MOCLDY    62  60  93 S7        30.10F
STEVENS POINT  PTCLDY    64  59  83 S7        30.13S
WAUPACA        PTCLDY    63  59  89 CALM      30.13F
WAUTOMA        PTCLDY    63  60  90 CALM      30.14F
WISC RAPIDS    PTCLDY    64  61  90 S5        30.13S
CAMP DOUGLAS   PTCLDY    66  62  88 S7        30.11S
$$

WIZ011>013-019>022-031-037>040-048>050-110900-
NORTHEAST WISCONSIN

CITY           SKY/WX    TMP DP  RH WIND       PRES   REMARKS
ANTIGO         CLOUDY    59  58  96 S7        30.14S
STURGEON BAY   MOCLDY    63  46  55 S8        30.15S
GREEN BAY      CLOUDY    63  51  65 S8        30.15S
MANITOWOC      MOCLDY    63  50  62 S5        30.16F
APPLETON       MOCLDY    63  52  67 S7        30.15S
CLINTONVILLE   MOCLDY    61  55  82 S5        30.13S
OSHKOSH        MOCLDY    64  54  69 S12       30.14S
$$

WIZ032>034-041-042-053>061-110900-
SOUTHWEST WISCONSIN

CITY           SKY/WX    TMP DP  RH WIND       PRES   REMARKS
LA CROSSE      PTCLDY    72  60  66 S10       30.08F
SPARTA         PTCLDY    65  57  75 S5        30.11S
VIROQUA        FAIR      64  59  83 S9        30.13S
BOSCOBEL       CLEAR     62  59  90 CALM      30.12S
PRAIRIE DU CHI PTCLDY    66  58  75 E3        30.12R
PLATTEVILLE    FAIR      62  60  91 SE8       30.15F
$$

WIZ056-057-062-063-064-067-068-110900-
SOUTH CENTRAL WISCONSIN

CITY           SKY/WX    TMP DP  RH WIND       PRES   REMARKS
BARABOO/DELLS  PTCLDY    64  57  80 S6        30.13F
LONE ROCK      CLEAR     67  59  75 NE3       30.13F
WATERTOWN      CLOUDY    60  55  83 CALM      30.17R
MADISON        PTCLDY    67  57  70 S8        30.15F
MIDDLETON      FAIR      65  57  74 CALM      30.16S
MONROE         CLEAR     61  55  82 S9        30.16F
JANESVILLE     PTCLDY    63  52  67 S3        30.17S
$$

WIZ051-052-058>065-066-070>072-110900-
SOUTHEAST WISCONSIN

CITY           SKY/WX    TMP DP  RH WIND       PRES   REMARKS
MILWAUKEE      MOCLDY    62  51  67 S6        30.18S
WAUKESHA       CLOUDY    61  48  63 S6        30.19S
MILWAUKEE/TIMM MOCLDY    63  45  51 S3        30.19S
RACINE         PTCLDY    60  54  80 S3        30.20S
BURLINGTON     PTCLDY    55  53  95 CALM      30.19R
KENOSHA        PTCLDY    58  52  80 S3        30.19S
FOND DU LAC    MOCLDY    60  53  77 S7        30.16S
SHEBOYGAN      MOCLDY    57  53  86 CALM      30.17S
WEST BEND      MOCLDY    61  45  55 CALM      30.17S
JUNEAU         CLOUDY    62  39  42 S8        30.18S
$$

LSZ147-162-110900-
LAKE SUPERIOR

STATION/POSITION TIME  TEMP    WIND        PRES    WAVE
                       AIR SEA DIR/SP/G            HT/PER
                 (UTC) (F)     (DEG/KT/KT) (MB)    (FT/S)
W MID LAKE BUOY  0750   47 38   CALM  /  2 1016.1F   0
PORT WING        0700   56      CALM  /  1 1015.6S
SAXON HARBOR     0740          190/  3/ 10 1016.3S
$$

LMZ867-665-643>646-110900-
LAKE MICHIGAN

STATION/POSITION TIME  TEMP    WIND        PRES    WAVE
                       AIR SEA DIR/SP/G            HT/PER
                 (UTC) (F)     (DEG/KT/KT) (MB)    (FT/S)
N MID LAKE BUOY  0750   59 55  200/ 12/ 14 1020.6F   1
NORTHPORT PIER   0700   63     160/  5/ 10 1020.7S
SISTER BAY       0725   60     160/  7/ 11   N/A
ALGOMA LAKESHORE 0720          230/ 10/ 11   N/A
KEWAUNEE LAKESHO 0700   53     170/  5/  6 1021.9R
SHEBOYGAN LAKESH 0800   63     180/  7/  8 1021.7F
PORT WASHINGTON  0700   60     190/  3/  6 1022.4S
MILWAUKEE LAKESH 0700   63     180/  4/  5   N/A
S MID LAKE BUOY  0750   60 59  180/  4/  4 1022.5F   0
KENOSHA   LAKESH 0800   63     190/  5/  6   N/A
$$

TC  - TEMPERATURE IN CELSIUS
VSB - VISIBILITY IN STATUTE MILES
WCI - WIND CHILL INDEX
HX  - HEAT INDEX



USA.gov is the U.S. government's official web portal to all federal, state and local government web resources and services.